Home > Weather > Białystok > Past weeks

Flag for Poland Weather for the Past 2 Weeks in Białystok, Poland

Now
32 °F

Clear.


Feels Like: 29 °F
Forecast: 38 / 46 °F
Wind: 3 mph from South

Location: Bialystok

Current Time: Feb 7, 2016 at 7:05:00 AM

Latest Report: Feb 7, 2016 at 6:00 AM


Visibility: 7 mi

Pressure: 30.02 "Hg

Humidity: 85%

Dew point: 28 °F

Location of BiałystokLocation

Historic Weather in Białystok — Graph

°F

Białystok Temperature Yesterday

Maximum temperature yesterday: 38 °F (at 1:00 PM)
Minimum temperature yesterday: 32 °F (at 7:00 AM)
Average temperature yesterday: 35 °F

High & Low Weather Summary for the Past Weeks

 TemperatureHumidityPressure
High47 °F (Feb 2, 11:00 AM)98% (Jan 25, 10:00 PM)30.53 "Hg (Jan 25, 10:00 PM)
Low6 °F (Jan 23, 9:00 PM)55% (Feb 3, 2:00 PM)29.47 "Hg (Jan 31, 3:00 AM)
Average34 °F83%30.01 "Hg
* Reported Jan 23 5:00 AM — Feb 7 5:00 AM, Białystok, Weather by CustomWeather, © 2016

Note: Actual official high and low records may vary slightly from our data, if they occured in-between our weather recording intervals... More about our weather records

Advertising

Białystok Weather History for the Previous 24 Hours

 ConditionsComfort  
Time TempWeatherWind HumidityBarometerVisibility
5:00 AM
Sun, Feb 7
33 °FClear.5 mph84%30.03 "Hg7 mi
9:00 PM
Sat, Feb 6
35 °FFog.2 mph85%30.12 "Hg4 mi
8:00 PM36 °FFog.2 mph83%30.14 "Hg4 mi
7:00 PM36 °FFog.3 mph80%30.15 "Hg4 mi
6:00 PM37 °FOvercast.3 mph79%30.16 "Hg6 mi
5:00 PM37 °FOvercast.3 mph76%30.16 "Hg6 mi
4:00 PM38 °FOvercast.3 mph71%30.16 "Hg7 mi
3:00 PM38 °FOvercast.3 mph65%30.16 "Hg11 mi
2:00 PM38 °FOvercast.3 mph61%30.17 "Hg18 mi
1:00 PM38 °FOvercast.3 mph61%30.18 "Hg19 mi
12:00 PM38 °FOvercast.3 mph63%30.20 "Hg14 mi
11:00 AM37 °FOvercast.3 mph73%30.21 "Hg10 mi
10:00 AM35 °FOvercast.2 mph75%30.22 "Hg7 mi
9:00 AM34 °FPartly sunny.2 mph80%30.22 "Hg6 mi
8:00 AM32 °FFog.2 mph87%30.22 "Hg6 mi
7:00 AM32 °FOvercast.1 mph89%30.21 "Hg6 mi
Weather by CustomWeather, © 2016

See weather overviewHow to use our weather pages